Regional Weather Roundup
Issued by NWS Newport/Morehead, NC

Current Version | Previous Version | Graphics & Text | Print | Product List | Glossary Off
Versions: 1 2 3 4 5 6 7 8 9 10 11 12 13 14 15 16 17 18 19 20 21 22 23 24 25 26 27 28 29 30 31 32 33 34 35 36 37 38 39 40 41 42 43 44 45 46 47 48 49 50

000
ASUS42 KMHX 212210
RWRMHX
WEATHER ROUNDUP FOR EASTERN NORTH CAROLINA
NATIONAL WEATHER SERVICE NEWPORT/MOREHEAD CITY NC
600 PM EDT MON JUL 21 2014

NOTE: "FAIR" INDICATES FEW OR NO CLOUDS BELOW 12,000 FEET
WITH NO SIGNIFICANT WEATHER AND/OR OBSTRUCTIONS TO VISIBILITY

NCZ015>017-031-032-045>047-102-103-212300-
NORTH COAST

CITY           SKY/WX    TMP DP  RH WIND       PRES   REMARKS
EDENTON        RAIN      75  72  88 SE5       30.14F
ELIZABETH CITY LGT RAIN  77  72  84 E7        30.16S
KITTY HAWK     CLOUDY    75  73  93 CALM      30.15R
MANTEO         NOT AVBL

$$

NCZ045>047-081-094-103-104-212300-
CENTRAL COAST

CITY           SKY/WX    TMP DP  RH WIND       PRES   REMARKS
FRISCO         CLOUDY    80  72  76 E6        30.13S
SWANQUARTER      N/A     79 N/A N/A NE6       30.09S

$$

NCZ095-097-098-100-101-212300-
SOUTHERN COAST

CITY           SKY/WX    TMP DP  RH WIND       PRES   REMARKS
BEAUFORT       LGT RAIN  75  73  93 NE6       30.11F
CEDAR ISLAND     N/A     79 N/A N/A E10       30.18S
JACKSONVILLE   LGT RAIN  76  76 100 CALM      30.11F
NEWPORT        NOT AVBL
PINEY ISLAND   LGT RAIN  79  77  94 E10       30.12S
WILMINGTON     LGT RAIN  74  71  91 NE6       30.11S


$$

NCZ011>013-027>030-043-044-078>080-089-090>093-098-212300-
COASTAL PLAIN

CITY           SKY/WX    TMP DP  RH WIND       PRES   REMARKS
AHOSKIE        CLOUDY    76  71  86 CALM      30.15S
CLINTON        LGT RAIN  74  73  99 CALM      30.13R
ELIZABETHTOWN  LGT RAIN  73  73 100 SE7       30.12S
GOLDSBORO      CLOUDY    76  75  96 SE2       30.12R
GREENVILLE     DRIZZLE   77  73  88 E5        30.15F
HAVELOCK       CLOUDY    77  73  87 E6        30.12F
KENANSVILLE    CLOUDY    74  71  92 CALM      30.14R
KINSTON        CLOUDY    77  72  83 E6        30.15R
NEW BERN       CLOUDY    79  74  84 CALM      30.13F
RICHLANDS      CLOUDY    73  70  88 CALM      30.13R
ROANOKE RAPIDS NOT AVBL
ROCKY MOUNT    CLOUDY    78  73  84 E3        30.14R
WASHINGTON     CLOUDY    76  73  92 CALM      30.14F
WHITEVILLE     RAIN      73  72  94 CALM      30.11F

$$

AMZ130-135-150-152-154-156-158-170-250-252-270-ANZ085-086-088-633-658-670-212300-
MARINE OBSERVATIONS

STATION/POSITION TIME  TEMP    WIND        PRES    WAVE   SWELL
                       AIR SEA DIR/SP/G            HT/PER HT/PER
                 (UTC) (F)     (DEG/KT/KT) (MB)    (FT/S) (FT/S)
CHESAPEAKE LIGHT NOT AVBL
BUOY 44014       2200   76 77   60/  4/  6 1021.2    3/ 7   3/ 7
DUCK             2200   76 75   90/  5/  6 1020.6
2E DUCK          2100                        N/A     2/ 8
OREGON INLET     2200   76 78   30/  7/ 11 1020.8
BUOY 44095       2200      77                N/A     3/ 8
20E OREGON INLET 2100           10/  8/ 10   N/A
HATTERAS CG      2200   79 81   80/  5/  7 1020.7
DIAMOND BUOY     2200          VRB  8/ 10  1019.9    3/ 8   3/ 8
CAPE LOOKOUT     2100   75     310/  7/ 10 1020.2
BEAUFORT LAB     2200   74 80   40/  5/  7 1019.2
30 SE NEW RIVER  2200   78 81   50/ 10/ 12 1019.5    3/ 7   3/ 7
5 SE WRIGHTSVILL 2100   74 81   60/ 10/ 10   N/A
BUOY 41002       2054   81 82  160/  6/  6 1020.5    3/ 7   3/ 7
BUOY 41004       2200   81 83  130/  8/ 10 1017.5    3/ 9   2/ 9

$$



USA.gov is the U.S. government's official web portal to all federal, state and local government web resources and services.